[[{"header":{"parameterUnit":"m.s-1","parameterCategory":1,"la1":30.2991,"la2":30.254,"lo1":-89.0895,"lo2":-89.0444,"dy":0.0017,"dx":0.0017,"nx":28,"ny":28,"refTime":"2024-07-03T21:00:00:Z","depth":0,"parameterNumber":2,"parameterNumberName":"U-component_of_WINDS"},"data":[0,0,0,0,0,0,0,0,0,0,0,0,0,0,0,0,0,0,0,0,0,0,0,0,0,0,0,0,0,0,0,0,0,0,0,0,0,0,0,0,0,0,0,0,0,0,0,0,0,0,0,0,0,0,0,0,0,0,0.7331,0.7331,0,0.7286,0.7285,0.7284,0.7204,0.7203,0.7201,0.72,0.7154,0.7155,0.7155,0,0,0,0,0,0,0,0,0,0,0,0,0,0.7348,0.7348,0.7331,0.7331,0.733,0.7286,0.7285,0.7284,0.7204,0.7202,0.7201,0.7199,0.7154,0.7155,0.7155,0,0,0,0,0,0,0,0,0,0,0,0,0,0.7325,0.7348,0.7331,0.7285,0.728,0.7286,0.7285,0.7284,0.7205,0.7202,0.72,0.7198,0.7154,0.7155,0.7155,0.7203,0,0,0.7156,0.7156,0,0,0,0,0,0,0,0,0.7327,0.7325,0.7292,0.7288,0.7283,0.7248,0.7274,0.7257,0.7205,0.7233,0.7199,0.7197,0.7188,0.7185,0.7181,0.7201,0.7199,0.7156,0.7156,0.7156,0.7156,0,0,0,0,0,0,0,0.7328,0.7326,0.7313,0.7292,0.7286,0.7266,0.726,0.7271,0.7224,0.7231,0.7225,0.722,0.7184,0.7181,0.718,0.7198,0.7156,0.7156,0.7156,0.7157,0.7251,0.7253,0,0,0,0,0,0,0.7337,0.7328,0.7314,0.7312,0.7299,0.7267,0.7261,0.7262,0.7224,0.7216,0.7222,0.7217,0.7182,0.718,0.7178,0.7229,0.7156,0.7157,0.7157,0.7249,0.7251,0.7254,0,0,0,0,0,0,0.7337,0.7336,0.7316,0.7318,0.7314,0.7269,0.7271,0.7262,0.7259,0.7217,0.7209,0.7228,0.718,0.7177,0.7196,0.7227,0.7157,0.7157,0.7246,0.725,0.7253,0.7334,0,0,0,0,0,0,0.7338,0.7337,0.7355,0.7319,0.7314,0.7336,0.7273,0.7263,0.7259,0.7251,0.722,0.7213,0.7178,0.7196,0.7197,0.7226,0.7157,0.7243,0.7248,0.7252,0.7329,0.734,0.735,0,0,0,0,0,0.7339,0.7381,0.7357,0.7355,0.7336,0.7338,0.7335,0.7294,0.7262,0.7279,0.7252,0.7214,0.7223,0.7199,0.7199,0.7229,0.7241,0.7246,0.7251,0.7324,0.7338,0.735,0,0,0,0,0,0,0.7423,0.7376,0.7348,0.738,0.7363,0.7325,0.7346,0.7311,0.7304,0.7297,0.7247,0.724,0.7265,0.7249,0.7222,0.7271,0.7226,0.7231,0.7281,0.7294,0.7305,0.7308,0.7158,0,0,0,0,0,0.7445,0.7451,0.7409,0.7441,0.7434,0.7391,0.7391,0.736,0.7341,0.7334,0.7309,0.7292,0.7291,0.7292,0.7289,0.7326,0.7317,0.7346,0.7357,0.7365,0.7371,0.7386,0.7398,0.7271,0.7271,0.7271,0,0,0.7491,0.7466,0.7473,0.7457,0.7441,0.7447,0.7386,0.7396,0.74,0.7336,0.7351,0.7332,0.731,0.7338,0.7349,0.7325,0.7404,0.7372,0.738,0.738,0.7393,0.7405,0.7416,0.7275,0.7274,0.7273,0,0,0.7577,0.756,0.7583,0.7567,0.7543,0.7514,0.7519,0.7485,0.7469,0.7484,0.7435,0.7439,0.7439,0.7425,0.7417,0.7495,0.7459,0.7496,0.7551,0.7567,0.7577,0.7586,0.7612,0.7622,0.7501,0.7501,0.7501,0,0.7638,0.7645,0.7599,0.7611,0.7605,0.7546,0.7568,0.7556,0.7532,0.7529,0.7502,0.7499,0.748,0.7502,0.7521,0.7518,0.7521,0.7499,0.7579,0.7587,0.7595,0.7619,0.7629,0.7506,0.7505,0.7505,0.7504,0,0.7719,0.7725,0.7747,0.7724,0.772,0.7737,0.7693,0.7695,0.7664,0.7637,0.7652,0.7627,0.7616,0.7619,0.759,0.7637,0.7622,0.7588,0.7542,0.7612,0.7634,0.7643,0.7512,0.7511,0.7509,0.7508,0,0,0.7859,0.7808,0.7817,0.7805,0.7772,0.7775,0.7789,0.7778,0.7779,0.7764,0.7774,0.7774,0.7741,0.7733,0.7701,0.7715,0.7776,0.7679,0.7678,0.7697,0.7823,0.7848,0.786,0.7751,0.7753,0.7754,0.7824,0,0.7938,0.7958,0.7916,0.7946,0.795,0.7892,0.7904,0.7885,0.786,0.7859,0.7831,0.7831,0.7789,0.7783,0.7795,0.7766,0.78,0.7761,0.7759,0.7759,0.7765,0.7871,0.7898,0.7966,0.7833,0.7834,0.7835,0,0.8033,0.8021,0.8051,0.8014,0.8014,0.8025,0.801,0.801,0.7986,0.7967,0.7956,0.7918,0.7928,0.7883,0.7895,0.7869,0.7865,0.7851,0.7853,0.785,0.7801,0.7871,0.7987,0.7997,0.7849,0.7847,0.7847,0,0.813,0.8121,0.8137,0.8129,0.8086,0.8095,0.8078,0.8052,0.8047,0.8034,0.803,0.8018,0.8012,0.8004,0.7963,0.7935,0.7979,0.7932,0.7963,0.7964,0.7975,0.7975,0.8091,0.7974,0.7974,0.7974,0.7974,0,0.8222,0.8242,0.818,0.819,0.821,0.8161,0.8182,0.8159,0.8136,0.814,0.809,0.8095,0.8041,0.804,0.8008,0.8022,0.802,0.8004,0.7995,0.8008,0.801,0.8005,0.7998,0.7977,0.7976,0.7976,0.7975,0,0.8334,0.8293,0.8306,0.8264,0.8254,0.8271,0.8234,0.8241,0.8212,0.8217,0.8216,0.817,0.8165,0.8124,0.8111,0.8089,0.8115,0.8097,0.8122,0.8116,0.8149,0.8146,0.8265,0.8278,0.8155,0.8156,0.8157,0,0.8395,0.8408,0.8367,0.8365,0.835,0.8349,0.8342,0.8294,0.829,0.8262,0.8272,0.8263,0.8253,0.8248,0.8214,0.8203,0.8184,0.8227,0.8182,0.8194,0.8183,0.8182,0.8183,0.8236,0.8238,0.8239,0.824,0,0.8506,0.8485,0.8478,0.8463,0.8457,0.8443,0.8426,0.8428,0.8374,0.8372,0.8365,0.8358,0.8343,0.8334,0.8316,0.8298,0.826,0.8254,0.826,0.8273,0.8286,0.8278,0.8147,0.8252,0.825,0.825,0.8249,0.8249,0.8593,0.8602,0.8573,0.8566,0.8548,0.8533,0.8537,0.8507,0.8501,0.8484,0.8456,0.8453,0.8427,0.8399,0.8383,0.838,0.8358,0.8368,0.837,0.8373,0.8379,0.8287,0.8377,0.8377,0.8377,0.8376,0.8376,0,0.8701,0.8679,0.8673,0.865,0.8645,0.8608,0.8587,0.8584,0.8582,0.8561,0.8551,0.8543,0.8533,0.8497,0.8484,0.8488,0.847,0.8486,0.8485,0.8481,0.8401,0.8396,0.8501,0.8501,0.8501,0.8501,0.8501,0.8501,0.8757,0.8769,0.8743,0.8745,0.8722,0.8719,0.871,0.8695,0.8677,0.867,0.8661,0.8637,0.8609,0.8592,0.8582,0.8571,0.8568,0.859,0.8574,0.8499,0.8487,0.8476,0.8471,0.859,0.859,0.8654,0.8654,0.8655]},{"header":{"parameterUnit":"m.s-1","parameterCategory":1,"la1":30.2991,"la2":30.254,"lo1":-89.0895,"lo2":-89.0444,"dy":0.0017,"dx":0.0017,"nx":28,"ny":28,"refTime":"2024-07-03T21:00:00:Z","depth":0,"parameterNumber":3,"parameterNumberName":"V-component_of_WINDS"},"data":[0,0,0,0,0,0,0,0,0,0,0,0,0,0,0,0,0,0,0,0,0,0,0,0,0,0,0,0,0,0,0,0,0,0,0,0,0,0,0,0,0,0,0,0,0,0,0,0,0,0,0,0,0,0,0,0,0,0,3.6613,3.6614,0,3.6704,3.6705,3.6706,3.6664,3.6662,3.6659,3.6657,3.6748,3.6752,3.6757,0,0,0,0,0,0,0,0,0,0,0,0,0,3.6399,3.6403,3.6613,3.6614,3.6615,3.6704,3.6705,3.6706,3.6664,3.6662,3.6659,3.6656,3.6746,3.6752,3.6757,0,0,0,0,0,0,0,0,0,0,0,0,0,3.6491,3.6404,3.6613,3.6605,3.6605,3.6704,3.6705,3.6707,3.6665,3.6661,3.6658,3.6655,3.6744,3.6751,3.6758,3.6868,0,0,3.6779,3.6781,0,0,0,0,0,0,0,0,3.6486,3.6499,3.6605,3.6606,3.6606,3.6669,3.6663,3.6761,3.6666,3.6642,3.6657,3.6653,3.6724,3.6732,3.6757,3.6872,3.6876,3.6779,3.6783,3.6786,3.6788,0,0,0,0,0,0,0,3.6479,3.6495,3.6649,3.6606,3.6607,3.6596,3.6605,3.6681,3.6701,3.6644,3.6641,3.6653,3.6724,3.675,3.6759,3.6878,3.6779,3.6785,3.6789,3.6792,3.7087,3.709,0,0,0,0,0,0,3.6474,3.649,3.6646,3.6651,3.6536,3.6602,3.6613,3.6652,3.67,3.6704,3.6655,3.665,3.6741,3.6751,3.6762,3.6893,3.6786,3.6792,3.6796,3.7083,3.7087,3.7092,0,0,0,0,0,0,3.6469,3.6488,3.6642,3.657,3.6589,3.661,3.6654,3.6656,3.6683,3.6709,3.6712,3.6679,3.6738,3.6752,3.6842,3.6896,3.6796,3.6802,3.7078,3.7084,3.7089,3.7157,0,0,0,0,0,0,3.6463,3.6487,3.653,3.6571,3.6593,3.6722,3.6658,3.666,3.6695,3.6689,3.6732,3.6736,3.6737,3.6832,3.6849,3.6903,3.6807,3.7074,3.7081,3.7088,3.715,3.7165,3.7177,0,0,0,0,0,3.6456,3.6545,3.6532,3.6551,3.6647,3.6725,3.6737,3.6737,3.6699,3.6742,3.6759,3.6735,3.6887,3.6842,3.686,3.6917,3.707,3.7079,3.7087,3.7144,3.7162,3.7176,0,0,0,0,0,0,3.6508,3.655,3.6536,3.6642,3.6681,3.6718,3.6772,3.6756,3.6805,3.6797,3.6794,3.6804,3.6897,3.6916,3.6864,3.7026,3.6973,3.6985,3.701,3.7027,3.704,3.7033,3.6813,0,0,0,0,0,3.6532,3.6594,3.6626,3.6716,3.6736,3.6751,3.6785,3.6782,3.6821,3.6837,3.686,3.6898,3.6955,3.6992,3.7045,3.7153,3.7161,3.7202,3.7215,3.7225,3.7236,3.7293,3.7311,3.7119,3.7119,3.7119,0,0,3.6582,3.6613,3.6651,3.6727,3.6757,3.6819,3.6765,3.6833,3.6879,3.6847,3.6933,3.6951,3.6994,3.7093,3.7137,3.7111,3.7291,3.7236,3.7245,3.7249,3.7303,3.7322,3.7338,3.7125,3.7124,3.7123,0,0,3.6705,3.6735,3.6812,3.6843,3.6888,3.6898,3.6916,3.6956,3.6968,3.7054,3.7031,3.7085,3.7182,3.7213,3.7242,3.7375,3.7354,3.7393,3.7461,3.7517,3.7532,3.7545,3.7591,3.7608,3.7403,3.7403,3.7404,0,3.6761,3.6855,3.6854,3.6924,3.6957,3.6932,3.701,3.7039,3.7099,3.7122,3.7093,3.7214,3.7241,3.7346,3.7379,3.7403,3.7423,3.7387,3.753,3.7543,3.7556,3.76,3.7617,3.7408,3.7407,3.7407,3.7406,0,3.6921,3.6986,3.7043,3.7102,3.7142,3.7215,3.7225,3.7265,3.7258,3.727,3.7357,3.7389,3.7447,3.7472,3.7466,3.7576,3.7559,3.753,3.7476,3.7578,3.762,3.7637,3.7414,3.7412,3.7411,3.741,0,0,3.7079,3.7137,3.7157,3.7184,3.7232,3.7281,3.7353,3.7411,3.7445,3.7488,3.7546,3.763,3.7603,3.7635,3.7632,3.7681,3.7783,3.7646,3.7647,3.7669,3.7905,3.7926,3.7945,3.777,3.7773,3.7776,3.7901,0,3.7204,3.733,3.7331,3.7447,3.7506,3.7483,3.7545,3.758,3.7593,3.7645,3.7658,3.7717,3.7678,3.7697,3.7745,3.7761,3.783,3.7752,3.7823,3.7826,3.7812,3.7967,3.799,3.8106,3.7917,3.792,3.7922,0,3.7366,3.7414,3.7536,3.7575,3.76,3.7656,3.7709,3.7758,3.7798,3.7803,3.784,3.7829,3.79,3.7845,3.7943,3.789,3.7919,3.7931,3.7936,3.7941,3.7879,3.7976,3.8144,3.8161,3.7948,3.7946,3.7944,0,3.7468,3.7563,3.7648,3.7671,3.7719,3.7758,3.778,3.7816,3.785,3.7896,3.7918,3.7972,3.8001,3.8042,3.8046,3.8005,3.8144,3.8089,3.8149,3.8149,3.8178,3.8176,3.8352,3.82,3.8199,3.8199,3.8199,0,3.7607,3.7682,3.7694,3.7746,3.7829,3.7829,3.7911,3.7929,3.7961,3.8015,3.7998,3.8049,3.8051,3.8103,3.8106,3.8186,3.8199,3.8205,3.8205,3.8206,3.8205,3.8224,3.8216,3.8204,3.8203,3.8202,3.8201,0,3.7733,3.7745,3.7836,3.7873,3.7884,3.7944,3.7975,3.8024,3.8035,3.8104,3.812,3.8137,3.8198,3.8205,3.8276,3.8278,3.8373,3.8365,3.836,3.8358,3.8418,3.8411,3.8611,3.8636,3.8468,3.847,3.8471,0,3.7821,3.7878,3.7922,3.7957,3.7981,3.8038,3.8073,3.8075,3.8113,3.8161,3.8204,3.8263,3.831,3.8407,3.8425,3.8478,3.847,3.8536,3.8478,3.8477,3.847,3.8466,3.8471,3.8547,3.8549,3.8551,3.8552,0,3.7974,3.7977,3.8029,3.8083,3.8125,3.8168,3.8208,3.8237,3.8244,3.8287,3.8348,3.8385,3.8456,3.8514,3.8567,3.8588,3.8571,3.857,3.8587,3.8588,3.8582,3.8585,3.839,3.8565,3.8564,3.8563,3.8562,3.8562,3.8083,3.8132,3.817,3.8229,3.8259,3.8296,3.8344,3.8361,3.8413,3.8472,3.847,3.8537,3.8574,3.8643,3.8667,3.8719,3.8697,3.8722,3.8728,3.8733,3.8738,3.8575,3.8729,3.8729,3.8728,3.8728,3.8728,0,3.8234,3.8257,3.8311,3.8367,3.8413,3.8394,3.8437,3.8476,3.8536,3.8572,3.8618,3.8688,3.8744,3.8767,3.8822,3.8859,3.8852,3.8873,3.887,3.8874,3.8756,3.8735,3.8877,3.8877,3.8877,3.8877,3.8877,3.8877,3.8318,3.84,3.8407,3.8504,3.8526,3.8593,3.8619,3.8653,3.8681,3.8761,3.8807,3.8822,3.8852,3.8909,3.8959,3.8964,3.8984,3.9008,3.901,3.8898,3.8883,3.8869,3.8849,3.9013,3.9013,3.9124,3.9125,3.9126]}]]